Location: *
(48.8667°N, 2.3331°E)
Time: 07:08:55
(UTC+00:00)

Cosmos 2061 Rocket - Pass Details

Date: 19 August 2020
Orbit: 966 x 1012 km, 82.9° (Epoch: 23 September)

Event Time Altitude Azimuth Distance (km) Brightness Sun altitude
Exits shadow 21:01:57 25° 161° (SSE) 1,827 4.9 -17.9°
Maximum altitude 21:05:28 57° 92° (E) 1,129 4.1 -18.3°
Drops below altitude 10° 21:11:32 10° 16° (NNE) 2,723 6.7 -19.0°
Sets 21:14:05 0° 13° (NNE) 3,677 7.5 -19.3°
